This is the latest recevied weather packets stored in our database for station/object K4ZZR. If no packets are shown the sender has not sent any weather packets the latest 10 day(s).
| Time | Temp. | Humidity | Pressure | Rain* | Wind** | Luminosity | Snow |
|---|---|---|---|---|---|---|---|
| 1778071634 | 26.11° C | 84% | 1016.4 hPa | 0 mm | - | 270 W/m² | - |
| 1778071332 | 26.11° C | 85% | 1016.3 hPa | 0 mm | - | 319 W/m² | - |
| 1778071028 | 25.56° C | 86% | 1016.1 hPa | 0 mm | - | 246 W/m² | - |
| 1778070728 | 25.56° C | 87% | 1016.2 hPa | 0 mm | - | 158 W/m² | - |
| 1778070424 | 25.56° C | 89% | 1016.3 hPa | 0 mm | - | 174 W/m² | - |
| 1778070121 | 25° C | 89% | 1016.3 hPa | 0 mm | - | 132 W/m² | - |
| 1778069819 | 25° C | 89% | 1016.4 hPa | 0 mm | - | 113 W/m² | - |
| 1778069515 | 25° C | 90% | 1016.2 hPa | 0 mm | - | 118 W/m² | - |
| 1778069213 | 25° C | 91% | 1016.3 hPa | 0 mm | - | 125 W/m² | - |
| 1778068910 | 24.44° C | 92% | 1016.4 hPa | 0 mm | - | 136 W/m² | - |
| 1778068609 | 23.89° C | 93% | 1016.3 hPa | 0 mm | - | 136 W/m² | - |
| 1778068306 | 23.89° C | 94% | 1016.2 hPa | 0 mm | - | 114 W/m² | - |
| 1778068003 | 23.33° C | 95% | 1016.4 hPa | 0 mm | - | 92 W/m² | - |
| 1778067701 | 23.33° C | 95% | 1016.4 hPa | 0 mm | - | 80 W/m² | - |
| 1778067400 | 23.33° C | 96% | 1016.6 hPa | 0 mm | - | 75 W/m² | - |
| 1778067096 | 22.78° C | 96% | 1016.2 hPa | 0 mm | - | 70 W/m² | - |
| 1778066792 | 22.78° C | 97% | 1016.5 hPa | 0 mm | - | 61 W/m² | - |
| 1778066490 | 22.22° C | 99% | 1016.2 hPa | 0 mm | - | 55 W/m² | - |
| 1778066188 | 22.22° C | 99% | 1016.3 hPa | 0 mm | - | 46 W/m² | - |
| 1778065885 | 22.22° C | 99% | 1015.9 hPa | 0 mm | - | 39 W/m² | - |
| 1778065582 | 21.67° C | 99% | 1015.8 hPa | 0 mm | - | 35 W/m² | - |
| 1778065280 | 21.67° C | 99% | 1015.8 hPa | 0 mm | - | 27 W/m² | - |
| 1778064976 | 21.67° C | 99% | 1015.8 hPa | 0 mm | - | 20 W/m² | - |
| 1778064673 | 21.11° C | 99% | 1015.7 hPa | 0 mm | - | 13 W/m² | - |
| 1778064372 | 21.11° C | 99% | 1015.7 hPa | 0 mm | - | 8 W/m² | - |
* Rain latest hour (hover to see other rain measurements)
** Current wind speed in m/s (hover to see current wind gust speed)